Location: Weymouth Pines Observatory
(42.9326°N, 81.3883°W)
Time: 02:17:36
(UTC-04:00)

Daily predictions for brighter satellites

Satellite Brightness Start Highest point End
(mag) Time Altitude Azimuth Time Altitude Azimuth Time Altitude Azimuth
Cosmos 1934 Rocket 4.1 00:15:30 49° ESE 00:16:10 52° E 00:22:01 10° NNE
Meteor 1-13 Rocket 4.2 00:10:32 10° N 00:16:30 85° E 00:17:32 63° SSE
Cosmos 2278 Rocket 4.2 00:13:47 10° WSW 00:18:24 25° NW 00:23:03 10° N
H-2A R/B 4.1 00:16:34 10° NE 00:19:26 26° ENE 00:19:26 26° ENE
Timation 1 Rocket 4.3 00:19:05 51° SSW 00:20:44 85° WNW 00:26:47 10° NNE
Cosmos 1833 Rocket 3.0 00:16:32 10° NW 00:21:59 52° WSW 00:22:37 50° SW
ALOS 2 3.3 00:28:27 44° ENE 00:28:27 44° ENE 00:32:17 10° N
Cosmos 1812 4.3 00:24:53 10° NNW 00:27:53 29° WNW 00:27:53 29° WNW
Meteor 1-11 Rocket 3.7 00:27:54 68° SSE 00:28:40 82° E 00:34:30 10° NNE
Meteor 2-21 Rocket 4.4 00:29:12 63° SE 00:30:03 72° E 00:36:15 10° NNE
Meteor 2-4 Rocket 3.7 00:26:06 10° N 00:31:28 60° ENE 00:31:50 59° E
Cosmos 1943 Rocket 4.3 00:33:47 13° E 00:33:47 13° E 00:35:23 10° ENE
Meteor 2-16 Rocket 4.4 00:33:34 60° SE 00:34:12 63° E 00:40:14 10° NNE
Gbstr 26 Del rocket 3.5 00:31:22 10° NW 00:35:48 55° NNE 00:35:48 55° NNE
Cosmos 1535 Rocket 4.5 00:34:49 59° SSW 00:36:08 85° W 00:42:35 10° N
Cosmos 2082 Rocket 3.3 00:31:41 10° NW 00:36:39 32° WSW 00:37:16 31° WSW
Cosmos 1331 Rocket 4.3 00:36:04 53° WSW 00:36:53 61° WNW 00:42:00 10° NNE
CZ-4B R/B 3.7 00:38:39 20° NNE 00:38:39 20° NNE 00:39:57 10° N
Cosmos 1633 4.1 00:39:00 34° NNE 00:39:00 34° NNE 00:41:14 10° NNE
USA 229 DEB 4.1 00:31:41 10° NW 00:38:30 51° WSW 00:39:43 46° SSW
USA 229 4.1 00:31:47 10° NW 00:38:37 51° WSW 00:39:49 47° SSW
Cosmos 1455 Rocket 4.4 00:40:43 30° ENE 00:40:43 30° ENE 00:43:36 10° NNE
Okean 1-7 Rocket 4.4 00:35:24 10° NNW 00:39:26 44° W 00:39:26 44° W
Meteor 2-21 4.5 00:41:01 59° SSW 00:42:13 77° W 00:48:27 10° N
Okean 1 Rocket 4.0 00:42:15 40° W 00:42:26 40° WNW 00:46:40 10° N
Cosmos 1809 Rocket 4.5 00:43:07 57° SW 00:44:20 73° W 00:50:34 10° N
Iridium 4 Rocket 3.8 00:40:00 10° N 00:45:48 72° W 00:46:34 64° SW
Cosmos 1025 Rocket 3.4 00:41:41 10° N 00:45:25 61° NNW 00:45:25 61° NNW
Cosmos 1536 3.7 00:47:25 47° N 00:47:25 47° N 00:50:19 10° N
H-2A R/B 4.3 00:46:19 13° WSW 00:47:56 15° W 00:50:58 10° NW
Cosmos 1400 Rocket 3.7 00:51:04 50° NNW 00:51:04 50° NNW 00:54:18 10° N
ISS -0.4 00:57:08 15° NNE 00:57:08 15° NNE 00:57:56 10° NE
NOSS 3-1 (A) 4.1 00:49:36 10° NW 00:57:10 75° NE 01:00:06 44° SE
Cosmos 1354 Rocket 3.9 00:52:41 10° NNW 00:57:55 84° NE 00:57:55 84° NE
Terra 4.4 01:00:27 10° W 01:01:00 10° W 01:01:34 10° W
MOS 1-B Rocket 4.0 01:04:58 63° SE 01:05:51 74° ENE 01:12:29 10° N
Meteor 1-23 Rocket 4.2 01:02:53 10° NNW 01:08:26 70° W 01:08:33 70° WSW
Cosmos 1447 Rocket 4.4 01:02:34 10° N 01:08:44 69° E 01:09:25 63° ESE
Cosmos 1544 Rocket 4.1 01:09:41 54° N 01:09:41 54° N 01:13:08 10° N
GP-B 4.2 01:08:19 10° NNE 01:11:41 37° ENE 01:11:41 37° ENE
Lacrosse 5 2.3 01:14:34 54° ENE 01:14:34 54° ENE 01:18:33 10° NE
ATLAS 2AS CENTAUR R/B 3.8 01:10:40 10° NNW 01:18:31 47° NE 01:24:02 19° ESE
Cosmos 2100 Rocket 4.4 01:18:44 49° ESE 01:19:24 51° E 01:25:32 10° NNE
Cosmos 2061 Rocket 4.4 01:24:53 49° ESE 01:25:37 52° E 01:31:49 10° NNE
Cosmos 2369 Rocket 2.1 01:28:04 80° W 01:28:16 82° WNW 01:33:56 10° NNE
NOSS 3-1 (C) 4.1 01:21:31 10° NW 01:29:02 64° WSW 01:30:26 56° SSW
Cosmos 1992 Rocket 4.0 01:32:45 72° ENE 01:32:45 72° ENE 01:37:33 10° NNE
BREEZE-M DEB (TANK) 4.4 01:22:47 10° WNW 01:35:41 49° N 01:39:31 10° ENE
SL-8 R/B 4.4 01:33:51 10° WNW 01:38:33 51° NNE 01:41:13 24° E
Cosmos 1802 Rocket 4.1 01:41:25 57° ESE 01:42:02 60° E 01:48:12 10° NNE
Cosmos 2016 Rocket 4.3 01:41:42 48° ESE 01:42:20 50° E 01:48:12 10° NNE
Cosmos 2285 Rocket 4.4 01:41:21 46° WSW 01:42:47 55° WNW 01:49:03 10° NNE
Cosmos 1459 Rocket 3.8 01:43:50 69° SE 01:44:22 73° E 01:50:28 10° NNE
CZ-2C R/B 2.5 01:42:56 10° NNE 01:48:08 84° NW 01:48:08 84° NW
Meteor 1-12 Rocket 4.1 01:48:04 83° SW 01:48:14 85° W 01:53:54 10° N
Helios 1A Rocket 3.9 01:45:14 10° N 01:48:26 46° NNW 01:48:26 46° NNW
CZ-2C R/B 2.9 01:54:50 82° N 01:54:50 82° N 01:59:35 10° NNW
H-2A R/B 4.1 01:52:07 10° N 01:56:01 29° WNW 01:56:04 29° WNW
Lacrosse 5 rocket 2.8 01:57:55 32° N 01:57:55 32° N 02:00:31 10° NNE
Cosmos 2173 Rocket 3.8 02:00:47 71° SSW 02:01:33 85° W 02:07:56 10° N
Cosmos 1500 4.4 02:13:02 40° N 02:13:02 40° N 02:15:36 10° N
Cosmos 1656 Rocket 4.1 02:12:47 47° ESE 02:12:54 48° ESE 02:18:18 10° NE
Cosmos 1943 Rocket 2.0 02:15:17 77° WSW 02:15:35 81° WNW 02:21:13 10° NNE
SL-24 DEB 4.5 02:11:36 10° N 02:15:59 66° NW 02:15:59 66° NW
Cosmos 1725 Rocket 4.1 02:15:21 54° SE 02:16:22 62° E 02:22:27 10° NNE
Tsikada Rocket 4.1 02:15:42 10° N 02:21:59 69° E 02:23:29 52° SE
BREEZE-M DEB (TANK) 4.1 02:31:08 39° E 02:31:08 39° E 02:33:22 10° ENE
SeaSat 1 2.3 02:30:22 85° W 02:30:22 85° W 02:35:17 10° NNW
ISS -0.4 02:30:02 10° NW 02:32:19 17° N 02:34:37 10° NE
BREEZE-M DEB (TANK) 4.5 02:40:43 14° ENE 02:40:43 14° ENE 02:41:12 10° ENE
Cosmos 2098 Rocket 4.1 02:37:31 57° S 02:39:05 87° E 02:46:35 10° N
Cosmos 1818 4.1 02:40:50 45° W 02:41:53 52° NW 02:47:15 10° NNE
Meteor 1-21 4.0 02:36:56 10° NNW 02:42:34 84° W 02:43:15 70° S
PSLV R/B 3.7 02:39:31 10° NNE 02:43:46 76° ENE 02:43:46 76° ENE
Cosmos 968 Rocket 3.8 02:38:54 10° NNW 02:43:34 52° W 02:43:34 52° W
NOSS 3-3 (A) 4.0 02:47:44 56° S 02:48:57 70° ESE 02:55:37 10° NE
NOSS 3-3 (C) 4.0 02:47:49 56° S 02:49:02 69° ESE 02:55:42 10° NE
Cosmos 2228 3.4 02:49:18 54° E 02:49:18 54° E 02:53:26 10° NNE
ERS-2 4.3 02:48:29 10° NE 02:51:09 18° E 02:51:12 18° E
Cosmos 1606 Rocket 3.9 02:53:17 54° NW 02:53:17 54° NW 02:57:08 10° N
Lacrosse 5 3.6 02:53:43 16° WNW 02:56:52 28° NNW 03:01:17 10° NNE
Meteor 1-15 Rocket 4.4 02:55:35 51° SSE 02:56:57 68° E 03:02:48 10° NNE
Cosmos 1743 4.2 03:06:25 28° NW 03:06:25 28° NW 03:09:08 10° NNW
Cosmos 2058 Rocket 3.1 03:07:03 64° WNW 03:07:03 64° WNW 03:11:23 10° N
Cosmos 2208 Rocket 3.9 03:07:38 65° S 03:08:26 84° ESE 03:13:41 10° NNE
ATLAS 2AS CENTAUR R/B 3.2 03:01:58 10° NW 03:09:38 49° WSW 03:11:24 42° SSW
Cosmos 1812 Rocket 4.5 03:10:24 37° ESE 03:11:19 42° E 03:15:33 10° NNE
Cosmos 2369 Rocket 4.5 03:10:01 10° W 03:13:13 15° NW 03:16:25 10° N
Cosmos 1842 3.9 03:10:05 10° NNW 03:13:16 46° NW 03:13:16 46° NW
Meteor 2-9 Rocket 4.2 03:15:12 52° SSW 03:16:40 76° W 03:22:31 10° N
Cosmos 1777 Rocket 4.3 03:11:44 10° NNW 03:16:38 46° W 03:16:38 46° W
Cosmos 2346 Rocket 4.4 03:11:10 10° N 03:17:27 86° W 03:19:49 42° S
Cosmos 2219 3.5 03:12:27 10° NW 03:17:47 45° WSW 03:17:55 45° WSW
CZ-2D R/B 4.0 03:14:17 10° NE 03:18:34 23° E 03:22:05 13° SE
Cosmos 1464 Rocket 4.5 03:16:25 30° SSE 03:19:23 55° E 03:25:32 10° NNE
IRS-1C 4.4 03:15:53 10° NNE 03:21:11 60° E 03:22:56 40° SSE
CBERS-1 4.0 03:16:47 10° NNE 03:21:57 75° ESE 03:23:18 49° S
Cosmos 1340 3.6 03:19:03 10° NNW 03:21:46 37° NW 03:21:46 37° NW
Cosmos 2227 Rocket 2.7 03:19:28 10° NNW 03:25:06 59° ENE 03:30:41 10° SE
Cosmos 2233 Rocket 4.0 03:23:43 45° SW 03:25:29 63° W 03:31:35 10° N
Cosmos 44 Rocket 4.3 03:23:37 10° NW 03:27:08 31° W 03:27:08 31° W
UNK 4.3 03:24:09 10° W 03:31:11 39° NNW 03:33:55 10° NE
AQUA 3.7 03:27:57 10° NNE 03:32:44 88° WNW 03:33:51 54° SSW
Cosmos 972 Rocket 3.8 03:30:13 10° NNW 03:35:08 83° WSW 03:37:04 39° S
Lacrosse 5 rocket 4.0 03:35:53 10° NW 03:37:13 12° NNW 03:38:32 10° N
IRS-P3 4.3 03:31:59 10° N 03:37:15 59° WNW 03:38:49 42° SW
Cosmos 1666 4.1 03:40:24 27° WNW 03:40:24 27° WNW 03:43:24 10° NNW
Cosmos 2278 3.8 03:38:18 39° S 03:40:24 71° ESE 03:46:04 10° NNE
Cosmos 2369 3.9 03:38:38 36° S 03:40:51 63° ESE 03:46:27 10° NNE
Uosat 12 SS-18 rocket 4.3 03:39:09 10° NW 03:43:49 70° WSW 03:47:24 21° SSE
Cosmos 2297 Rocket 2.6 03:41:23 10° NNW 03:47:01 63° ENE 03:52:36 10° SE
Cosmos 405 Rocket 2.9 03:45:05 10° N 03:49:11 77° E 03:50:36 39° SSE
Cosmos 1513 Rocket 4.5 03:47:41 28° S 03:51:01 78° E 03:57:05 10° N
GEOS 3 Rocket 3.7 03:47:07 10° SE 03:52:19 80° NE 03:57:31 10° NW
Cosmos 468 Rocket 4.1 03:54:32 32° S 03:56:54 68° ESE 04:02:03 10° NNE
Cosmos 2150 Rocket 3.9 03:52:25 10° NNW 03:57:42 87° ENE 04:02:06 14° SSE
SL-08 R/B 3.9 03:57:30 36° WSW 03:58:02 37° W 04:02:23 10° NNW
UNKNOWN OBJECT B 4.4 03:56:02 10° NE 03:59:29 29° E 04:01:57 15° SSE
Cosmos 1943 Rocket 4.4 03:57:11 10° WNW 04:00:17 15° NW 04:03:24 10° N
NPP 4.2 03:55:28 10° N 04:00:34 44° WNW 04:02:39 30° WSW
Meteor 1-24 Rocket 4.2 03:55:14 10° N 04:00:52 63° ENE 04:06:40 10° SSE
IRAS Rocket 4.5 03:55:27 10° N 04:00:58 58° WNW 04:03:28 32° SW
NOSS 2-1 (D) 3.4 04:05:09 41° SSW 04:06:23 69° ESE 04:10:47 10° NE
Cosmos 1891 Rocket 4.4 04:02:57 27° S 04:06:24 84° W 04:12:32 10° N
NOSS 2-1 (C) 3.4 04:06:27 40° SSW 04:07:44 69° ESE 04:12:09 10° NE
Resurs 1-4 Rocket 2.4 04:03:29 10° NNE 04:08:44 63° ESE 04:12:18 20° S
ISS -1.4 04:06:31 10° NW 04:09:29 31° NNE 04:12:26 10° E
ATLAS CENTAUR R/B 2.2 04:09:11 28° S 04:11:41 56° ESE 04:16:36 10° NE
EO 1 Del DPAF 3.5 04:09:56 16° SSE 04:12:57 67° ENE 04:16:50 10° N
SL-16 R/B 2.5 04:07:22 10° SSE 04:13:34 86° WSW 04:19:46 10° NNW
Cosmos 1898 Rocket 3.5 04:09:12 10° NNW 04:14:30 67° WSW 04:18:52 15° S
USA 161 2.0 04:15:50 43° W 04:15:50 43° W 04:18:23 10° NNW
SL-24 R/B 4.3 04:12:23 20° S 04:15:54 71° WSW 04:20:31 10° NNW
Cosmos 1378 4.0 04:12:12 10° N 04:15:55 50° E 04:19:32 10° SSE
Cosmos 44 4.1 04:12:17 10° NW 04:16:41 29° WSW 04:17:03 29° WSW
Okean O Rocket 3.4 04:14:18 10° NE 04:18:03 27° E 04:21:47 10° SSE
Cosmos 2034 Rocket 4.0 04:14:41 24° SSW 04:18:33 71° W 04:24:46 10° N
Cosmos 972 4.4 04:15:38 10° NNW 04:20:27 61° WSW 04:24:12 17° S
ADEOS 3.9 04:15:53 10° N 04:20:55 49° WNW 04:23:34 26° SW
NOSS 2-1 (E) 3.4 04:21:03 33° SW 04:22:47 90° NW 04:27:23 10° NE
ERS-2 3.3 04:21:41 10° N 04:25:00 30° WNW 04:26:02 26° W
Cosmos 1441 Rocket 3.8 04:24:14 10° N 04:28:11 60° ENE 04:32:08 10° SSE
Cosmos 1707 3.3 04:25:32 10° NNW 04:29:14 39° W 04:30:34 29° SW
Cosmos 1076 Rocket 3.6 04:24:57 10° N 04:29:18 77° E 04:33:36 10° SSE
Cosmos 220 Rocket 4.4 04:25:33 10° NW 04:29:39 41° WSW 04:31:42 25° SSW
Milstar 3 Cent rocket 3.7 04:28:17 18° SSW 04:30:21 21° SSE 04:36:09 10° ESE
Cosmos 1937 Rocket 3.4 04:25:33 10° NNW 04:30:41 66° WSW 04:35:50 10° S
Cosmos 841 Rocket 4.0 04:26:34 16° S 04:30:44 58° ESE 04:35:55 10° NNE
NOSS 3-4 (A) 3.8 04:25:33 10° NW 04:32:33 85° WSW 04:39:58 10° SSE
NOSS 3-4 (C) 3.8 04:25:38 10° NW 04:32:40 85° WSW 04:40:08 10° SSE
Nadezhda 4 Rocket 3.9 04:27:42 10° N 04:33:52 74° W 04:40:04 10° S
BREEZE-M DEB (TANK) 3.0 04:29:58 17° WSW 04:33:55 63° NNW 04:36:28 10° NE
ARIANE 5 R/B 2.8 04:32:00 10° N 04:36:59 55° WNW 04:40:22 21° SW
SME Rocket 4.3 04:34:57 16° SSW 04:39:07 51° W 04:46:51 10° NNW
Cosmos 1763 Rocket 3.6 04:35:23 17° SSW 04:39:26 79° ESE 04:44:39 10° NNE
UNK 4.0 04:36:38 16° S 04:40:08 51° W 04:44:43 10° NNW
GPS 2-04 Rocket1 3.9 04:40:11 22° SSW 04:41:13 24° S 04:44:20 10° ESE
Lacrosse 5 4.4 04:38:07 10° NW 04:41:20 16° N 04:44:33 10° NE
MTI 3.7 04:40:47 13° S 04:43:41 79° WSW 04:46:59 10° NNW
BREEZE-M DEB (TANK) 3.9 04:41:20 10° WNW 04:45:42 20° WSW 04:45:42 20° WSW
Cosmos 1656 3.8 04:42:41 19° SW 04:46:51 71° WNW 04:52:32 10° NNE
Cosmos 1408 Rocket 3.5 04:43:22 10° NNW 04:47:44 71° W 04:52:07 10° S
Cosmos 1766 Rocket 3.5 04:44:00 10° NNW 04:48:24 76° W 04:52:48 10° S
Thor Agena Rocket 4.4 04:46:24 10° SE 04:51:15 51° ENE 04:56:09 10° N
Cosmos-2242 3.1 04:49:21 10° S 04:53:40 79° E 04:58:00 10° N
CZ-4B R/B 4.1 04:50:05 10° NNE 04:53:52 38° E 04:57:26 10° SSE
NOSS 7 (D) 4.3 04:54:13 20° SW 04:56:29 88° NW 04:59:55 10° NE
Cosmos 1437 3.7 04:53:34 10° N 04:56:51 52° ENE 05:00:06 10° SSE
CZ-2D R/B 2.6 04:53:37 10° N 04:58:54 49° WNW 05:03:24 14° SW
IRS-1D 4.2 04:54:25 10° N 04:58:57 37° WNW 05:02:36 15° SW
Cosmos 1697 Rocket 2.7 04:55:03 15° SSW 04:59:49 75° WNW 05:05:31 10° NNE
CZ-2C R/B 3.8 04:56:36 10° SSE 05:01:19 89° WSW 05:06:00 10° NNW
In-Cosmos 22 4.0 04:56:47 10° NNW 05:02:06 84° W 05:07:23 10° S
Cosmos 2026 Rocket 4.2 04:58:54 10° N 05:05:18 81° E 05:11:35 10° S
Cosmos 1980 Rocket 2.3 05:01:15 10° SSW 05:06:51 79° ESE 05:12:32 10° NNE
Cosmos 1634 Rocket 4.0 05:01:30 10° SSW 05:07:43 77° W 05:14:02 10° N
Cosmos 2227 Rocket 3.5 05:04:35 10° NW 05:08:38 20° W 05:12:24 11° SW
PSLV R/B 3.7 05:05:16 10° N 05:09:11 84° WNW 05:12:58 10° SSW
Cosmos 1842 Rocket 4.2 05:05:56 10° S 05:10:20 59° E 05:14:45 10° NNE
Cosmos 540 Rocket 4.1 05:10:31 10° S 05:15:33 56° ESE 05:20:37 10° NNE
Cosmos 2195 Rocket 4.4 05:09:46 10° N 05:15:53 75° W 05:21:58 10° S
Cosmos 2322 Rocket 3.5 05:11:42 10° S 05:16:48 37° ESE 05:21:56 10° NE
Cosmos 1674 3.5 05:13:26 10° N 05:17:10 53° E 05:20:50 10° SSE
Cosmos 1470 3.7 05:13:33 10° SSE 05:17:20 48° E 05:21:10 10° NNE
Abrixas 3.4 05:15:34 10° WNW 05:18:35 52° NNE 05:21:36 10° E
Cosmos 1544 3.2 05:16:07 10° S 05:19:47 81° E 05:23:28 10° N
IRS-1C Rocket 4.1 05:14:32 10° N 05:19:47 68° WNW 05:24:59 10° SSW
Cosmos 1092 Rocket 4.4 05:14:54 10° NNW 05:20:47 44° W 05:26:42 10° SSW
MOZ.5/SAFIR/RUBIN 5/SL-8 3.8 05:18:20 10° S 05:23:01 63° W 05:27:41 10° NNW
ADEOS II 3.5 05:18:33 10° NNE 05:23:27 38° E 05:28:19 10° SSE
USA 81 4.1 05:18:11 10° S 05:23:28 80° W 05:28:47 10° N
Cosmos 2297 Rocket 3.5 05:26:39 10° WNW 05:30:29 19° W 05:34:19 10° SW
UNKNOWN OBJECT B 4.3 05:30:50 10° NNW 05:33:53 22° WNW 05:36:52 10° WSW
Cosmos 1758 4.1 05:30:30 10° SW 05:34:14 36° WNW 05:37:59 10° N
Cosmos 2360 4.3 05:34:46 10° SSW 05:40:28 81° WNW 05:46:14 10° NNE
Cosmos 332 Rocket 3.9 05:35:52 10° SSW 05:40:40 87° ESE 05:45:31 10° NNE
